Change the Weather History Date:

Friday, April 12, 2013

  Actual Average Record
Temperature  
Mean Temperature 42 °F -  
Max Temperature 45 °F 60 °F 78 °F (2006)
Min Temperature 37 °F 40 °F 27 °F (2012)
Degree Days  
Heating Degree Days 22    
Moisture  
Dew Point 38 °F    
Average Humidity 89    
Maximum Humidity 100    
Minimum Humidity 76    
Precipitation  
Precipitation 0.07 in - - ()
Sea Level Pressure  
Sea Level Pressure 29.73 in    
Wind  
Wind Speed 17 mph (WSW)    
Max Wind Speed 25 mph    
Max Gust Speed 31 mph    
Visibility 10 miles    
Events Rain    
Averages and records for this station are not official NWS values.
T = Trace of Precipitation, MM = Missing Value Source: NWS Daily Summary

Daily Weather History Graph

Daily Weather History Graph

Search for Another Location

Airport or City:

Trip Planner

Search our weather history database for the weather conditions in past years. The results will help you decide how hot, cold, wet, or windy it might be!

Date:

Astronomy

Apr. 12, 2013 Rise Set
Actual Time 7:10 AM EDT 8:21 PM EDT
Civil Twilight 6:42 AM EDT 8:49 PM EDT
Nautical Twilight 6:08 AM EDT 9:23 PM EDT
Astronomical Twilight 5:33 AM EDT 9:58 PM EDT
Moon 8:18 AM EDT (4/12) 10:52 PM EDT (4/12)
Length of Visible Light 14h 07m
Length of Day
13h 10m
Waxing Crescent, 5% of the Moon is Illuminated
Apr 12
Waxing Crescent
Apr 18
First Quarter
Apr 25
Full
May 2
Last Quarter
May 9
New

Hourly Weather History & Observations

Time (EDT) Temp. Windchill Dew Point Humidity Pressure Visibility Wind Dir Wind Speed Gust Speed Precip Events Conditions
12:07 AM 48.2 °F - 48.2 °F 100% 29.59 in 6.0 mi West 8.1 mph - N/A Rain Light Rain
12:20 AM 48.2 °F - 48.2 °F 100% 29.59 in 7.0 mi West 19.6 mph - N/A Rain Light Rain
12:37 AM 48.2 °F - 48.2 °F 100% 29.59 in 7.0 mi West 18.4 mph - N/A Rain Light Rain
12:40 AM 46.4 °F 39.2 °F 46.4 °F 100% 29.59 in 8.0 mi West 18.4 mph - N/A Rain Light Rain
12:52 AM 46.4 °F 39.2 °F 46.4 °F 100% 29.59 in 10.0 mi West 18.4 mph - N/A Rain Light Rain
12:55 AM 45.3 °F 37.6 °F 45.3 °F 100% 29.59 in 10.0 mi West 19.6 mph - 0.05 in Rain Light Rain
1:20 AM 44.6 °F 37.4 °F 44.6 °F 100% 29.60 in 10.0 mi West 16.1 mph 26.5 mph N/A Rain Light Rain
1:29 AM 44.6 °F 37.4 °F 44.6 °F 100% 29.60 in 10.0 mi West 16.1 mph 24.2 mph N/A Rain Light Rain
1:31 AM 44.6 °F 36.9 °F 44.6 °F 100% 29.60 in 10.0 mi West 18.4 mph 24.2 mph N/A Rain Light Rain
1:41 AM 44.6 °F 37.8 °F 44.6 °F 100% 29.61 in 10.0 mi WNW 15.0 mph 25.3 mph N/A   Overcast
1:48 AM 44.6 °F 37.2 °F 44.6 °F 100% 29.61 in 10.0 mi WNW 17.3 mph - N/A   Overcast
1:51 AM 42.8 °F 35.4 °F 42.8 °F 100% 29.61 in 10.0 mi West 15.0 mph - N/A   Overcast
1:53 AM 42.8 °F 35.4 °F 42.8 °F 100% 29.62 in 10.0 mi West 15.0 mph - N/A   Overcast
1:55 AM 43.7 °F 36.6 °F 43.7 °F 100% 29.61 in 10.0 mi West 15.0 mph - 0.02 in   Overcast
1:56 AM 44.6 °F 37.8 °F 44.6 °F 100% 29.62 in 10.0 mi West 15.0 mph - N/A   Overcast
2:55 AM 41.7 °F 33.1 °F 39.9 °F 93% 29.62 in 10.0 mi West 18.4 mph - N/A   Overcast
3:04 AM 41.0 °F 31.9 °F 39.2 °F 93% 29.62 in 10.0 mi West 19.6 mph - N/A   Overcast
3:55 AM 40.6 °F 32.0 °F 37.8 °F 89% 29.60 in 10.0 mi West 17.3 mph - N/A   Overcast
4:06 AM 41.0 °F 33.9 °F 37.4 °F 87% 29.60 in 10.0 mi West 12.7 mph - N/A   Overcast
4:40 AM 41.0 °F 31.6 °F 37.4 °F 87% 29.61 in 10.0 mi West 20.7 mph - N/A   Overcast
4:55 AM 39.7 °F 31.5 °F 37.6 °F 92% 29.61 in 10.0 mi West 15.0 mph - N/A   Overcast
5:17 AM 39.2 °F 30.5 °F 37.4 °F 93% 29.62 in 10.0 mi West 16.1 mph - N/A   Overcast
5:34 AM 39.2 °F 30.2 °F 37.4 °F 93% 29.62 in 10.0 mi West 17.3 mph - N/A   Overcast
5:48 AM 39.2 °F 30.2 °F 37.4 °F 93% 29.62 in 10.0 mi West 17.3 mph - N/A   Overcast
5:55 AM 39.4 °F 30.7 °F 37.2 °F 92% 29.62 in 10.0 mi West 16.1 mph - N/A   Overcast
6:09 AM 39.2 °F 30.2 °F 37.4 °F 93% 29.62 in 10.0 mi West 17.3 mph - N/A   Overcast
6:55 AM 38.3 °F 30.1 °F 34.7 °F 87% 29.64 in 10.0 mi West 13.8 mph - N/A   Overcast
7:55 AM 37.9 °F 28.5 °F 33.8 °F 85% 29.66 in 10.0 mi West 17.3 mph - N/A   Overcast
8:55 AM 37.8 °F 28.6 °F 31.3 °F 77% 29.68 in 10.0 mi WSW 16.1 mph - N/A   Overcast
9:55 AM 37.9 °F 28.2 °F 33.3 °F 83% 29.69 in 10.0 mi WSW 18.4 mph - N/A   Overcast
10:33 AM 39.2 °F 29.3 °F 33.8 °F 81% 29.69 in 10.0 mi SW 20.7 mph - N/A   Overcast
10:36 AM 39.2 °F 29.3 °F 33.8 °F 81% 29.69 in 10.0 mi WSW 20.7 mph - N/A   Overcast
10:55 AM 39.6 °F 29.7 °F 34.5 °F 82% 29.69 in 10.0 mi WSW 20.7 mph - N/A   Overcast
11:19 AM 39.2 °F 30.5 °F 33.8 °F 81% 29.70 in 10.0 mi WSW 16.1 mph - N/A   Overcast
11:21 AM 39.2 °F 30.5 °F 33.8 °F 81% 29.70 in 10.0 mi WSW 16.1 mph - N/A   Overcast
11:26 AM 39.2 °F 30.2 °F 35.6 °F 87% 29.70 in 10.0 mi WSW 17.3 mph 21.9 mph N/A   Overcast
11:54 AM 41.0 °F 31.9 °F 33.8 °F 76% 29.71 in 10.0 mi WSW 19.6 mph - N/A   Overcast
12:00 PM 41.0 °F 31.6 °F 35.6 °F 81% 29.71 in 10.0 mi WSW 20.7 mph - N/A   Overcast
12:05 PM 41.0 °F 31.6 °F 35.6 °F 81% 29.71 in 10.0 mi WSW 20.7 mph 24.2 mph N/A   Overcast
12:55 PM 40.6 °F 32.3 °F 34.5 °F 79% 29.73 in 10.0 mi WSW 16.1 mph - N/A   Overcast
1:03 PM 41.0 °F 32.2 °F 35.6 °F 81% 29.73 in 10.0 mi WSW 18.4 mph - N/A   Overcast
1:12 PM 41.0 °F 31.6 °F 35.6 °F 81% 29.72 in 10.0 mi SW 20.7 mph 27.6 mph N/A   Overcast
1:35 PM 41.0 °F 31.4 °F 33.8 °F 76% 29.72 in 10.0 mi WSW 21.9 mph 28.8 mph N/A   Overcast
1:39 PM 41.0 °F 31.4 °F 33.8 °F 76% 29.73 in 10.0 mi WSW 21.9 mph 28.8 mph N/A   Overcast
1:55 PM 41.0 °F 31.6 °F 34.7 °F 78% 29.73 in 10.0 mi WSW 20.7 mph - N/A   Overcast
2:24 PM 41.0 °F 31.9 °F 33.8 °F 76% 29.74 in 10.0 mi WSW 19.6 mph 26.5 mph N/A   Overcast
2:42 PM 41.0 °F 31.1 °F 35.6 °F 81% 29.75 in 10.0 mi WSW 23.0 mph 31.1 mph N/A Rain Light Rain
2:55 PM 39.6 °F 30.6 °F 36.5 °F 89% 29.76 in 10.0 mi WSW 17.3 mph - 0.00 in   Light Drizzle
2:59 PM 39.2 °F 29.3 °F 37.4 °F 93% 29.76 in 10.0 mi SW 20.7 mph 25.3 mph N/A   Overcast
3:55 PM 41.5 °F 32.6 °F 34.5 °F 76% 29.77 in 10.0 mi WSW 19.6 mph - 0.00 in   Overcast
4:10 PM 41.0 °F 32.5 °F 35.6 °F 81% 29.78 in 10.0 mi WSW 17.3 mph - N/A   Overcast
4:14 PM 41.0 °F 30.7 °F 35.6 °F 81% 29.78 in 10.0 mi WSW 25.3 mph 31.1 mph N/A   Overcast
4:21 PM 41.0 °F 31.4 °F 35.6 °F 81% 29.76 in 10.0 mi WSW 21.9 mph 31.1 mph N/A   Light Drizzle
4:22 PM 41.0 °F 31.4 °F 35.6 °F 81% 29.79 in 10.0 mi WSW 21.9 mph 31.1 mph N/A   Overcast
4:55 PM 41.2 °F 32.1 °F 37.9 °F 88% 29.79 in 10.0 mi WSW 19.6 mph - 0.00 in   Overcast
4:58 PM 41.0 °F 31.9 °F 37.4 °F 87% 29.79 in 10.0 mi WSW 19.6 mph - N/A   Overcast
5:05 PM 41.0 °F 32.8 °F 37.4 °F 87% 29.79 in 10.0 mi WSW 16.1 mph - N/A   Overcast
5:10 PM 41.0 °F 31.9 °F 37.4 °F 87% 29.79 in 10.0 mi WSW 19.6 mph 25.3 mph N/A   Overcast
5:15 PM 42.8 °F 33.5 °F 37.4 °F 81% 29.79 in 10.0 mi WSW 23.0 mph - N/A   Light Drizzle
5:33 PM 41.0 °F 32.5 °F 39.2 °F 93% 29.80 in 10.0 mi WSW 17.3 mph - N/A   Light Drizzle
5:34 PM 41.0 °F 32.2 °F 39.2 °F 93% 29.80 in 10.0 mi WSW 18.4 mph - N/A   Overcast
5:44 PM 41.0 °F 32.5 °F 37.4 °F 87% 29.81 in 10.0 mi WSW 17.3 mph - N/A   Overcast
5:55 PM 41.0 °F 31.9 °F 37.9 °F 89% 29.81 in 10.0 mi WSW 19.6 mph - 0.00 in   Overcast
6:45 PM 41.0 °F 30.9 °F 37.4 °F 87% 29.83 in 10.0 mi West 24.2 mph - N/A   Overcast
6:55 PM 40.6 °F 31.7 °F 37.9 °F 90% 29.83 in 10.0 mi WSW 18.4 mph 28.8 mph N/A   Overcast
7:00 PM 41.0 °F 32.5 °F 37.4 °F 87% 29.84 in 10.0 mi West 17.3 mph 28.8 mph N/A   Overcast
7:48 PM 41.0 °F 31.9 °F 37.4 °F 87% 29.84 in 10.0 mi West 19.6 mph - N/A   Overcast
7:51 PM 41.0 °F 31.9 °F 37.4 °F 87% 29.85 in 10.0 mi West 19.6 mph 27.6 mph N/A   Overcast
7:55 PM 41.5 °F 32.9 °F 37.4 °F 85% 29.84 in 10.0 mi West 18.4 mph 27.6 mph N/A   Overcast
7:59 PM 41.0 °F 32.5 °F 37.4 °F 87% 29.85 in 10.0 mi West 17.3 mph 27.6 mph N/A   Light Drizzle
8:09 PM 41.0 °F 31.9 °F 37.4 °F 87% 29.85 in 10.0 mi West 19.6 mph 26.5 mph N/A   Overcast
8:55 PM 40.6 °F 31.4 °F 36.1 °F 84% 29.86 in 10.0 mi WSW 19.6 mph 27.6 mph 0.00 in   Overcast
9:02 PM 41.0 °F 31.9 °F 35.6 °F 81% 29.86 in 10.0 mi West 19.6 mph 27.6 mph N/A   Overcast
9:55 PM 39.9 °F 30.8 °F 37.4 °F 91% 29.88 in 10.0 mi West 18.4 mph - 0.00 in   Light Drizzle
10:05 PM 39.2 °F 29.3 °F 37.4 °F 93% 29.88 in 10.0 mi West 20.7 mph 28.8 mph N/A   Overcast
10:24 PM 39.2 °F 29.3 °F 37.4 °F 93% 29.89 in 10.0 mi West 20.7 mph 27.6 mph N/A   Overcast
10:26 PM 39.2 °F 30.5 °F 37.4 °F 93% 29.89 in 10.0 mi West 16.1 mph - N/A   Light Drizzle
10:37 PM 39.2 °F 32.0 °F 37.4 °F 93% 29.89 in 10.0 mi West 11.5 mph - N/A   Overcast
10:55 PM 39.6 °F 31.0 °F 37.9 °F 94% 29.89 in 10.0 mi West 16.1 mph - 0.00 in   Overcast
10:56 PM 39.2 °F 30.5 °F 37.4 °F 93% 29.89 in 10.0 mi West 16.1 mph - N/A   Overcast
11:02 PM 39.2 °F 30.2 °F 37.4 °F 93% 29.89 in 10.0 mi West 17.3 mph - N/A   Overcast
11:55 PM 39.6 °F 32.5 °F 36.9 °F 90% 29.91 in 10.0 mi West 11.5 mph - N/A   Overcast